DRGN04 YPED-YAMB

Flight info

Callsign DRGN04
Flight time N/A
Altitude 28000
Route DCT NATYA H247 CULIN Y59 TESAT DCT MARTO DCT 323925S1523359E 314605S1530150E 305331S1533001E 294448S1534401E DCT SEMAJ DCT LOTMA DCT 2748S15325E DCT YBBN DCT SOOTY DCT
Aircraft A332/H-SADE1E2E3GHIJ3J5M1P2RWXY/LB2D1

Departure

Time N/A
Airport RAAF Base Edinburgh (YPED)

Arrival

Time 2026-04-26 09:38
Airport RAAF Base Amberley (YAMB)
Time Latitude Longitude Altitude Speed Heading
2026-04-26 08:44 -32.66160 152.55435 28071 ft 496 kts 38°
2026-04-26 08:44 -32.63281 152.57707 28076 ft 497 kts 31°
2026-04-26 08:45 -32.57012 152.61211 28074 ft 499 kts 25°
2026-04-26 08:45 -32.50664 152.64542 28073 ft 499 kts 25°
2026-04-26 08:46 -32.44330 152.67876 28076 ft 499 kts 25°
2026-04-26 08:46 -32.38022 152.71187 28075 ft 499 kts 25°
2026-04-26 08:47 -32.31680 152.74510 28072 ft 499 kts 25°
2026-04-26 08:47 -32.25324 152.77835 28072 ft 499 kts 25°
2026-04-26 08:48 -32.20042 152.80594 28071 ft 499 kts 25°
2026-04-26 08:48 -32.13686 152.83909 28073 ft 499 kts 25°
2026-04-26 08:49 -32.07328 152.87220 28074 ft 499 kts 25°
2026-04-26 08:49 -32.00968 152.90528 28072 ft 500 kts 25°
2026-04-26 08:50 -31.94603 152.93832 28074 ft 500 kts 25°
2026-04-26 08:50 -31.88233 152.97135 28074 ft 500 kts 25°
2026-04-26 08:51 -31.78662 153.02088 28074 ft 501 kts 25°
2026-04-26 08:52 -31.72300 153.05438 28075 ft 501 kts 26°
2026-04-26 08:52 -31.65984 153.08883 28072 ft 501 kts 26°
2026-04-26 08:53 -31.59699 153.12293 28075 ft 501 kts 26°
2026-04-26 08:53 -31.53360 153.15713 28066 ft 502 kts 26°
2026-04-26 08:54 -31.47018 153.19126 28073 ft 502 kts 26°
2026-04-26 08:54 -31.40664 153.22542 28067 ft 502 kts 26°
2026-04-26 08:55 -31.34308 153.25953 28060 ft 503 kts 26°
2026-04-26 08:55 -31.27959 153.29355 28072 ft 503 kts 26°
2026-04-26 08:56 -31.21580 153.32768 28081 ft 503 kts 26°
2026-04-26 08:56 -31.15209 153.36172 28058 ft 504 kts 26°
2026-04-26 08:57 -31.08836 153.39572 28060 ft 504 kts 26°
2026-04-26 08:57 -31.02437 153.42981 28055 ft 505 kts 26°
2026-04-26 08:58 -30.96043 153.46383 28065 ft 506 kts 26°
2026-04-26 08:58 -30.89566 153.49580 28062 ft 508 kts 20°
2026-04-26 08:59 -30.82658 153.51394 28054 ft 510 kts 11°
2026-04-26 08:59 -30.75705 153.52800 28054 ft 510 kts 11°
2026-04-26 09:00 -30.68713 153.54235 28050 ft 510 kts 11°
2026-04-26 09:00 -30.61709 153.55673 28049 ft 511 kts 11°
2026-04-26 09:01 -30.54699 153.57110 28050 ft 511 kts 11°
2026-04-26 09:01 -30.47692 153.58543 28049 ft 512 kts 11°
2026-04-26 09:02 -30.40680 153.59976 28049 ft 512 kts 11°
2026-04-26 09:02 -30.33646 153.61410 28053 ft 512 kts 11°
2026-04-26 09:03 -30.26630 153.62840 28044 ft 512 kts 11°
2026-04-26 09:03 -30.19611 153.64267 28041 ft 512 kts 11°
2026-04-26 09:04 -30.12657 153.65679 28040 ft 512 kts 10°
2026-04-26 09:04 -30.05623 153.67106 28039 ft 513 kts 10°
2026-04-26 09:05 -29.98578 153.68532 28040 ft 513 kts 10°
2026-04-26 09:05 -29.91539 153.69956 28039 ft 513 kts 10°
2026-04-26 09:06 -29.84523 153.71373 28039 ft 513 kts 10°
2026-04-26 09:06 -29.77482 153.72792 28036 ft 513 kts 10°
2026-04-26 09:07 -29.70432 153.74112 28036 ft 513 kts
2026-04-26 09:07 -29.63384 153.75124 28033 ft 513 kts
2026-04-26 09:08 -29.56307 153.76160 28035 ft 513 kts
2026-04-26 09:08 -29.49199 153.77232 28033 ft 514 kts
2026-04-26 09:09 -29.42113 153.78307 28026 ft 514 kts
2026-04-26 09:09 -29.35021 153.79381 28038 ft 514 kts
2026-04-26 09:10 -29.27926 153.80453 28029 ft 514 kts
2026-04-26 09:10 -29.20987 153.81502 28031 ft 486 kts
2026-04-26 09:10 -29.17695 153.82000 28028 ft 468 kts
2026-04-26 09:11 -29.14524 153.82479 28026 ft 453 kts
2026-04-26 09:11 -29.08264 153.83419 28024 ft 460 kts
2026-04-26 09:12 -29.01898 153.84376 28027 ft 458 kts
2026-04-26 09:12 -28.95580 153.85324 28026 ft 458 kts
2026-04-26 09:13 -28.89294 153.86267 28021 ft 458 kts
2026-04-26 09:13 -28.82971 153.87215 28018 ft 458 kts
2026-04-26 09:14 -28.76653 153.88160 28020 ft 458 kts
2026-04-26 09:14 -28.70321 153.89035 28018 ft 457 kts
2026-04-26 09:15 -28.64043 153.88555 27936 ft 450 kts 346°
2026-04-26 09:15 -28.60989 153.87745 27568 ft 447 kts 344°
2026-04-26 09:15 -28.57973 153.86918 27142 ft 445 kts 344°
2026-04-26 09:15 -28.54988 153.86110 26661 ft 441 kts 345°
2026-04-26 09:16 -28.52001 153.85307 26131 ft 438 kts 345°
2026-04-26 09:16 -28.49050 153.84517 25625 ft 435 kts 345°
2026-04-26 09:16 -28.46114 153.83733 25116 ft 432 kts 345°
2026-04-26 09:16 -28.43191 153.82952 24599 ft 430 kts 345°
2026-04-26 09:17 -28.40287 153.82175 24090 ft 427 kts 346°
2026-04-26 09:17 -28.37404 153.81405 23539 ft 425 kts 346°
2026-04-26 09:17 -28.34548 153.80642 22981 ft 421 kts 346°
2026-04-26 09:17 -28.31687 153.79879 22267 ft 421 kts 346°
2026-04-26 09:18 -28.28826 153.79116 21287 ft 426 kts 346°
2026-04-26 09:18 -28.25895 153.78333 20059 ft 438 kts 347°
2026-04-26 09:18 -28.22899 153.77534 19073 ft 445 kts 347°
2026-04-26 09:18 -28.19901 153.76734 18447 ft 438 kts 348°
2026-04-26 09:19 -28.16993 153.75953 17648 ft 434 kts 347°
2026-04-26 09:19 -28.14152 153.74812 16845 ft 432 kts 336°
2026-04-26 09:19 -28.11559 153.73134 16113 ft 428 kts 326°
2026-04-26 09:19 -28.09265 153.71001 15414 ft 424 kts 318°
2026-04-26 09:20 -28.07113 153.68791 15087 ft 408 kts 319°
2026-04-26 09:20 -28.05047 153.66706 15006 ft 387 kts 319°
2026-04-26 09:20 -28.03068 153.64721 14732 ft 374 kts 319°
2026-04-26 09:20 -28.01131 153.62782 14193 ft 371 kts 320°
2026-04-26 09:21 -27.99205 153.60855 13596 ft 368 kts 320°
2026-04-26 09:21 -27.97292 153.58941 12979 ft 365 kts 320°
2026-04-26 09:21 -27.95401 153.57049 12406 ft 362 kts 320°
2026-04-26 09:21 -27.93529 153.55176 12095 ft 357 kts 320°
2026-04-26 09:22 -27.91658 153.53304 12001 ft 361 kts 320°
2026-04-26 09:22 -27.89777 153.51423 11994 ft 360 kts 320°
2026-04-26 09:22 -27.87920 153.49565 11997 ft 360 kts 320°
2026-04-26 09:22 -27.86074 153.47721 11996 ft 359 kts 320°
2026-04-26 09:23 -27.84198 153.45850 11999 ft 359 kts 320°
2026-04-26 09:23 -27.82319 153.43975 11998 ft 359 kts 320°
2026-04-26 09:23 -27.80440 153.42112 11996 ft 358 kts 321°
2026-04-26 09:23 -27.78415 153.40489 12000 ft 357 kts 329°
2026-04-26 09:24 -27.76303 153.38990 11999 ft 357 kts 329°
2026-04-26 09:24 -27.74205 153.37484 11998 ft 357 kts 329°
2026-04-26 09:24 -27.72113 153.35976 11988 ft 356 kts 329°
2026-04-26 09:24 -27.70039 153.34478 11724 ft 354 kts 329°
2026-04-26 09:25 -27.67979 153.32991 11284 ft 351 kts 329°
2026-04-26 09:25 -27.65919 153.31504 11071 ft 350 kts 329°
2026-04-26 09:25 -27.63853 153.30017 10994 ft 353 kts 329°
2026-04-26 09:25 -27.61816 153.28550 10989 ft 352 kts 329°
2026-04-26 09:26 -27.59713 153.27037 10990 ft 353 kts 329°
2026-04-26 09:26 -27.57642 153.25548 10990 ft 353 kts 329°
2026-04-26 09:26 -27.55602 153.24081 10987 ft 353 kts 329°
2026-04-26 09:26 -27.53533 153.22594 10989 ft 352 kts 329°
2026-04-26 09:27 -27.51441 153.21091 10990 ft 352 kts 329°
2026-04-26 09:27 -27.49407 153.19630 10987 ft 352 kts 329°
2026-04-26 09:27 -27.47327 153.18136 10991 ft 352 kts 329°
2026-04-26 09:27 -27.45507 153.16831 10987 ft 353 kts 329°
2026-04-26 09:28 -27.43445 153.15353 10988 ft 352 kts 329°
2026-04-26 09:28 -27.41371 153.13862 10987 ft 353 kts 328°
2026-04-26 09:28 -27.39569 153.11978 10981 ft 355 kts 307°
2026-04-26 09:28 -27.38453 153.09527 10744 ft 354 kts 287°
2026-04-26 09:29 -27.38143 153.06796 10298 ft 351 kts 268°
2026-04-26 09:29 -27.38360 153.04075 9665 ft 349 kts 261°
2026-04-26 09:29 -27.38686 153.01407 9046 ft 346 kts 261°
2026-04-26 09:29 -27.38960 152.98766 8436 ft 343 kts 263°
2026-04-26 09:30 -27.39157 152.96254 7861 ft 341 kts 264°
2026-04-26 09:30 -27.39319 152.93573 7230 ft 338 kts 265°
2026-04-26 09:30 -27.39454 152.90939 6618 ft 336 kts 265°
2026-04-26 09:30 -27.39579 152.88331 5993 ft 332 kts 265°
2026-04-26 09:31 -27.39700 152.85761 5334 ft 330 kts 265°
2026-04-26 09:31 -27.39849 152.83194 4665 ft 325 kts 259°
2026-04-26 09:31 -27.40584 152.80843 4051 ft 315 kts 236°
2026-04-26 09:31 -27.42019 152.79047 3440 ft 304 kts 215°
2026-04-26 09:32 -27.43520 152.77432 3114 ft 297 kts 231°
2026-04-26 09:32 -27.44273 152.75371 3030 ft 273 kts 255°
2026-04-26 09:32 -27.44516 152.73397 3003 ft 232 kts 259°
2026-04-26 09:32 -27.44670 152.71730 3001 ft 205 kts 259°
2026-04-26 09:33 -27.44817 152.70150 3002 ft 201 kts 259°
2026-04-26 09:33 -27.44915 152.69119 2998 ft 200 kts 259°
2026-04-26 09:33 -27.45130 152.67023 3000 ft 201 kts 259°
2026-04-26 09:33 -27.45240 152.65983 3000 ft 200 kts 256°
2026-04-26 09:34 -27.46113 152.64348 2997 ft 180 kts 203°
2026-04-26 09:34 -27.47296 152.64164 3005 ft 172 kts 168°
2026-04-26 09:34 -27.48082 152.64370 2983 ft 171 kts 160°
2026-04-26 09:34 -27.49206 152.64827 2818 ft 171 kts 155°
2026-04-26 09:35 -27.50666 152.65475 2505 ft 171 kts 156°
2026-04-26 09:35 -27.51413 152.65802 2356 ft 170 kts 156°
2026-04-26 09:35 -27.52516 152.66288 2131 ft 170 kts 156°
2026-04-26 09:35 -27.53596 152.66760 1905 ft 168 kts 157°
2026-04-26 09:36 -27.54708 152.67247 1682 ft 172 kts 157°
2026-04-26 09:36 -27.55812 152.67732 1443 ft 171 kts 157°
2026-04-26 09:36 -27.56930 152.68222 1216 ft 174 kts 158°
2026-04-26 09:36 -27.58067 152.68722 990 ft 177 kts 158°
2026-04-26 09:37 -27.59223 152.69228 754 ft 178 kts 158°
2026-04-26 09:37 -27.60377 152.69735 522 ft 176 kts 159°
2026-04-26 09:37 -27.61515 152.70234 295 ft 176 kts 159°
2026-04-26 09:37 -27.62651 152.70732 106 ft 169 kts 159°
2026-04-26 09:38 -27.63380 152.71052 102 ft 47 kts 159°
2026-04-26 09:38 -27.63434 152.71075 103 ft 1 kts 159°
2026-04-26 09:38 -27.63418 152.71068 102 ft 3 kts 160°
2026-04-26 09:38 -27.63391 152.71058 103 ft 4 kts 163°
2026-04-26 09:39 -27.63363 152.71049 100 ft 1 kts 159°
2026-04-26 09:39 -27.63368 152.71048 101 ft 1 kts 173°
2026-04-26 09:39 -27.63394 152.71022 103 ft 8 kts 236°
2026-04-26 09:39 -27.63385 152.70946 103 ft 12 kts 283°
2026-04-26 09:40 -27.63359 152.70850 104 ft 13 kts 298°
2026-04-26 09:40 -27.63278 152.70796 105 ft 15 kts 337°
2026-04-26 09:40 -27.63165 152.70745 104 ft 20 kts 338°
2026-04-26 09:40 -27.63023 152.70689 105 ft 23 kts 338°
2026-04-26 09:41 -27.62865 152.70615 106 ft 26 kts 337°
2026-04-26 09:41 -27.62686 152.70539 105 ft 29 kts 338°
2026-04-26 09:41 -27.62564 152.70449 104 ft 10 kts 286°
2026-04-26 09:41 -27.62513 152.70377 102 ft 13 kts 329°
2026-04-26 09:42 -27.62496 152.70370 102 ft 1 kts 339°
2026-04-26 09:42 -27.62494 152.70369 102 ft 0 kts 339°